WORLDVIEW-3 (WV-3)

Last updated on Mon Sep 15 2025 00:02:30 GMT+0000 (Coordinated Universal Time)

1 40115U 14048A 25257.24521123 .00000839 00000+0 10422-3 0 9990 2 40115 97.8708 330.6280 0006225 125.3565 234.8233 14.85166111600955
UTC large
Height (km)
Speed (km/s)
/
Latitude / Longitude
Inclination (degrees)
Orbital Period (minutes)
Azimuth
Elevation
Range (km)
Doppler Factor

Next 0 passes for location: London (51.5072 / 0.1276)

Sorry there are no passes over London.